TimeEST,TemperatureF,Dew PointF,Humidity,Sea Level PressureIn,VisibilityMPH,Wind Direction,Wind SpeedMPH,Gust SpeedMPH,PrecipitationIn,Events,Conditions,WindDirDegrees,DateUTC
12:53 AM,36.0,33.1,89,29.88,5.0,West,6.9,-,N/A,,Overcast,260,2012-12-11 05:53:00
1:53 AM,35.1,32.0,89,29.88,3.0,WNW,9.2,-,0.00,,Overcast,300,2012-12-11 06:53:00
2:14 AM,33.8,30.2,87,29.88,4.0,NW,6.9,-,0.00,,Overcast,320,2012-12-11 07:14:00
2:53 AM,34.0,30.9,89,29.92,7.0,WNW,6.9,-,0.00,,Overcast,300,2012-12-11 07:53:00
3:53 AM,35.1,30.0,82,29.93,10.0,Calm,Calm,-,N/A,,Overcast,0,2012-12-11 08:53:00
4:44 AM,35.6,32.0,87,29.92,9.0,Calm,Calm,-,N/A,,Overcast,0,2012-12-11 09:44:00
4:53 AM,35.1,30.9,85,29.94,9.0,Calm,Calm,-,N/A,,Overcast,0,2012-12-11 09:53:00
5:21 AM,35.6,30.2,81,29.94,9.0,Calm,Calm,-,N/A,,Overcast,0,2012-12-11 10:21:00
5:53 AM,35.1,30.9,85,29.98,10.0,West,3.5,-,N/A,,Overcast,260,2012-12-11 10:53:00
6:26 AM,35.6,30.2,81,29.96,10.0,Calm,Calm,-,N/A,,Overcast,0,2012-12-11 11:26:00
6:53 AM,35.1,30.9,85,30.00,10.0,Calm,Calm,-,N/A,,Overcast,0,2012-12-11 11:53:00
7:53 AM,34.0,30.0,85,30.02,10.0,Calm,Calm,-,N/A,,Overcast,0,2012-12-11 12:53:00
8:37 AM,35.6,28.4,75,30.02,10.0,Calm,Calm,-,N/A,,Overcast,0,2012-12-11 13:37:00
8:53 AM,35.1,30.0,82,30.05,10.0,Calm,Calm,-,N/A,,Overcast,0,2012-12-11 13:53:00
9:09 AM,35.6,30.2,81,30.03,10.0,Calm,Calm,-,N/A,,Overcast,0,2012-12-11 14:09:00
9:53 AM,35.1,30.0,82,30.08,9.0,SW,3.5,-,N/A,,Overcast,230,2012-12-11 14:53:00
10:26 AM,35.6,30.2,81,30.07,7.0,WSW,5.8,-,0.00,,Overcast,250,2012-12-11 15:26:00
10:53 AM,36.0,30.9,82,30.09,10.0,WSW,5.8,-,0.00,,Overcast,240,2012-12-11 15:53:00
11:35 AM,35.6,30.2,81,30.07,10.0,WSW,4.6,-,N/A,,Overcast,240,2012-12-11 16:35:00
11:53 AM,37.0,30.0,76,30.09,10.0,Variable,3.5,-,N/A,,Mostly Cloudy,0,2012-12-11 16:53:00
12:01 PM,37.4,28.4,70,30.07,10.0,Variable,3.5,-,N/A,,Scattered Clouds,0,2012-12-11 17:01:00
12:53 PM,37.0,27.0,67,30.09,10.0,West,6.9,-,N/A,,Overcast,260,2012-12-11 17:53:00
1:53 PM,37.9,28.0,68,30.09,10.0,West,6.9,-,N/A,,Overcast,260,2012-12-11 18:53:00
2:42 PM,37.4,26.6,65,30.07,10.0,WNW,6.9,-,N/A,,Overcast,290,2012-12-11 19:42:00
2:53 PM,37.9,27.0,65,30.10,10.0,WSW,5.8,-,N/A,,Overcast,250,2012-12-11 19:53:00
3:53 PM,37.9,26.1,62,30.11,10.0,West,6.9,-,N/A,,Overcast,270,2012-12-11 20:53:00
4:53 PM,37.0,26.1,65,30.15,10.0,WSW,4.6,-,N/A,,Overcast,240,2012-12-11 21:53:00
5:53 PM,37.0,27.0,67,30.17,10.0,WSW,9.2,-,N/A,,Overcast,250,2012-12-11 22:53:00
6:53 PM,36.0,27.0,70,30.18,10.0,WSW,3.5,-,N/A,,Overcast,240,2012-12-11 23:53:00
7:53 PM,34.0,27.0,75,30.21,10.0,Calm,Calm,-,N/A,,Scattered Clouds,0,2012-12-12 00:53:00
8:53 PM,33.1,25.0,72,30.22,10.0,SW,3.5,-,N/A,,Mostly Cloudy,220,2012-12-12 01:53:00
9:53 PM,32.0,24.1,73,30.23,10.0,SW,3.5,-,N/A,,Clear,220,2012-12-12 02:53:00
10:53 PM,30.9,23.0,72,30.24,10.0,Calm,Calm,-,N/A,,Clear,0,2012-12-12 03:53:00
11:53 PM,30.0,23.0,75,30.26,10.0,Calm,Calm,-,N/A,,Clear,0,2012-12-12 04:53:00